EW0139 Weather Reports


time (UTC)temp
C
wind
direction
speed
KPH
gust
KPH
rain 1hr
cm
rain 24hr
cm
rain mn
cm
humidity
%
barometer
mb
20260506061808 -5 310 0.0 3.2 0.00 0.00 0.00 64 1018.2
20260506060808 -5 310 0.0 4.8 0.00 0.00 0.00 64 1018.2
20260506050757 -3 309 0.0 3.2 0.00 0.00 0.00 56 1018.1
20260506044755 -3 310 3.2 3.2 0.00 0.00 0.00 56 1018.0
20260506043756 -2 309 0.0 3.2 0.00 0.00 0.00 56 1017.9
20260506042741 -2 309 1.6 4.8 0.00 0.00 0.00 54 1017.9
20260506041801 -1 309 1.6 3.2 0.00 0.00 0.00 53 1017.9
20260506040802 -1 309 0.0 3.2 0.00 0.00 0.00 51 1017.8
20260506035742 -1 310 1.6 4.8 0.00 0.00 0.00 49 1017.8
20260506034747 0 309 4.8 4.8 0.00 0.00 0.00 48 1017.8
20260506033807 0 310 3.2 6.4 0.00 0.00 0.00 46 1017.8
20260506032745 0 310 3.2 8.0 0.00 0.00 0.00 45 1017.8
20260506031745 1 310 4.8 6.4 0.00 0.00 0.00 43 1017.7
20260506030746 1 310 6.4 8.0 0.00 0.00 0.00 41 1017.6
20260506025750 2 309 6.4 8.0 0.00 0.00 0.00 40 1017.4
20260506024750 3 309 6.4 8.0 0.00 0.00 0.00 38 1017.3
20260506023753 3 307 4.8 6.4 0.00 0.00 0.00 37 1017.2
20260506022752 4 307 6.4 8.0 0.00 0.00 0.00 37 1017.1
20260506021757 5 307 9.7 16.1 0.00 0.00 0.00 34 1016.9
20260506020817 6 306 11.3 17.7 0.00 0.00 0.00 32 1016.9
20260506015817 7 309 16.1 24.1 0.00 0.00 0.00 31 1016.8
20260506014816 7 317 20.9 25.7 0.00 0.00 0.00 30 1016.7
20260506013754 7 303 19.3 27.4 0.00 0.00 0.00 30 1016.6
20260506012753 7 294 17.7 27.4 0.00 0.00 0.00 29 1016.6
20260506011800 8 295 19.3 29.0 0.00 0.00 0.00 28 1016.5
20260506010801 8 296 24.1 33.8 0.00 0.00 0.00 29 1016.4
20260506005802 8 304 17.7 27.4 0.00 0.00 0.00 29 1016.4
20260506004741 8 321 25.7 35.4 0.00 0.00 0.00 28 1016.4
20260506003741 8 311 32.2 35.4 0.00 0.00 0.00 29 1016.2
20260506002749 8 305 19.3 35.4 0.00 0.00 0.00 29 1016.4
20260506001751 8 290 19.3 37.0 0.00 0.00 0.00 30 1016.1
20260506000752 8 305 20.9 37.0 0.00 0.00 0.00 29 1016.3
20260505235751 8 292 27.4 38.6 0.00 0.00 0.00 29 1016.2
20260505234759 8 289 27.4 38.6 0.00 0.00 0.00 30 1016.2
20260505233757 8 302 20.9 33.8 0.00 0.00 0.00 30 1016.2
20260505232741 8 292 20.9 32.2 0.00 0.00 0.00 29 1016.1
20260505231740 7 323 20.9 37.0 0.00 0.00 0.00 30 1016.2
20260505230745 8 300 20.9 32.2 0.00 0.00 0.00 30 1016.2
20260505225746 7 323 20.9 43.5 0.00 0.00 0.00 30 1016.3
20260505224747 8 286 16.1 38.6 0.00 0.00 0.00 30 1016.1
20260505223748 8 292 19.3 37.0 0.00 0.00 0.00 28 1016.2
20260505222748 8 315 27.4 33.8 0.00 0.00 0.00 29 1016.2
20260505221752 8 287 27.4 33.8 0.00 0.00 0.00 31 1016.2
20260505220755 8 325 25.7 37.0 0.00 0.00 0.00 32 1016.1
20260505215755 7 300 14.5 37.0 0.00 0.00 0.00 32 1016.3
20260505214755 7 303 27.4 33.8 0.00 0.00 0.00 33 1016.4
20260505213743 7 290 22.5 35.4 0.00 0.00 0.00 33 1016.4
20260505212743 7 325 22.5 37.0 0.00 0.00 0.00 33 1016.6
20260505211743 7 275 30.6 49.9 0.00 0.00 0.00 35 1016.5
20260505210744 7 298 24.1 35.4 0.00 0.00 0.00 34 1016.7
20260505205744 6 290 20.9 35.4 0.00 0.00 0.00 35 1016.7
20260505204752 6 298 24.1 32.2 0.00 0.00 0.00 36 1016.8
20260505203750 6 325 19.3 35.4 0.00 0.00 0.00 36 1016.9
20260505202752 6 297 20.9 37.0 0.00 0.00 0.00 35 1016.9
20260505201751 6 285 17.7 32.2 0.00 0.00 0.00 36 1017.0
20260505200755 6 326 20.9 33.8 0.00 0.00 0.00 38 1017.0
20260505195756 5 295 24.1 27.4 0.00 0.00 0.00 39 1017.2
20260505194756 6 279 11.3 33.8 0.00 0.00 0.00 39 1017.3
20260505193818 5 289 33.8 33.8 0.00 0.00 0.00 41 1017.3
20260505192756 5 290 19.3 38.6 0.00 0.00 0.00 40 1017.2
20260505191802 5 304 27.4 33.8 0.00 0.00 0.00 39 1017.2
20260505190740 5 301 22.5 43.5 0.00 0.00 0.00 43 1017.2
20260505185802 5 288 35.4 35.4 0.00 0.00 0.00 40 1017.2
20260505184743 5 280 17.7 38.6 0.00 0.00 0.00 41 1017.3
20260505183742 4 313 29.0 43.5 0.00 0.00 0.00 42 1017.3
20260505182751 4 286 25.7 37.0 0.00 0.00 0.00 41 1017.5
20260505181753 4 297 37.0 37.0 0.00 0.00 0.00 43 1017.4
20260505180754 4 305 24.1 40.2 0.00 0.00 0.00 42 1017.3
20260505175817 4 294 29.0 38.6 0.00 0.00 0.00 42 1017.4
20260505174741 4 313 40.2 40.2 0.00 0.00 0.00 42 1017.3
20260505173744 3 309 24.1 37.0 0.00 0.00 0.00 41 1017.3
20260505172745 3 286 33.8 41.8 0.00 0.00 0.00 42 1017.4
20260505171806 3 302 29.0 46.7 0.00 0.00 0.00 43 1017.4
20260505170745 3 297 32.2 41.8 0.00 0.00 0.00 43 1017.4
20260505165746 3 285 27.4 43.5 0.00 0.00 0.00 44 1017.5
20260505164750 3 288 25.7 43.5 0.00 0.00 0.00 44 1017.5
20260505163811 3 291 25.7 41.8 0.00 0.00 0.00 45 1017.4
20260505162749 2 292 27.4 40.2 0.00 0.00 0.00 46 1017.4
20260505161815 2 294 24.1 43.5 0.00 0.00 0.00 46 1017.3
20260505160818 2 302 24.1 40.2 0.00 0.00 0.00 47 1017.2
20260505152740 2 300 33.8 40.2 0.00 0.00 0.00 49 1017.1
20260505151802 2 300 22.5 33.8 0.00 0.00 0.00 49 1017.9
20260505150745 2 290 24.1 33.8 0.00 0.00 0.00 51 1018.0
20260505124749 -1 291 16.1 19.3 0.00 0.00 0.00 69 1017.0
20260505123751 -1 293 16.1 19.3 0.00 0.00 0.00 70 1017.0
20260505122751 -1 291 16.1 17.7 0.00 0.00 0.00 71 1016.9
20260505121752 -2 285 14.5 19.3 0.00 0.00 0.00 71 1016.8
20260505120813 -2 290 16.1 19.3 0.00 0.00 0.00 73 1016.6
20260505115756 -2 282 14.5 17.7 0.00 0.00 0.00 73 1016.5
20260505114739 -2 289 16.1 19.3 0.00 0.00 0.00 73 1016.5
20260505113741 -2 289 17.7 19.3 0.00 0.00 0.00 73 1016.4
20260505112742 -2 290 16.1 16.1 0.00 0.00 0.00 73 1016.3
20260505111747 -2 293 9.7 17.7 0.00 0.00 0.00 72 1016.2
20260505110746 -2 292 14.5 19.3 0.00 0.00 0.00 72 1016.2
20260505101753 -1 279 11.3 16.1 0.00 0.00 0.00 69 1016.0
20260505100758 -1 284 9.7 16.1 0.00 0.00 0.00 68 1016.0
20260505095742 -1 290 12.9 16.1 0.00 0.00 0.00 69 1015.7
20260505094741 -2 293 11.3 11.3 0.00 0.00 0.00 72 1015.7
20260505093800 -1 292 6.4 9.7 0.00 0.00 0.00 70 1015.6
20260505092741 -1 292 6.4 14.5 0.00 0.00 0.00 69 1015.5
20260505091800 0 282 8.0 11.3 0.00 0.00 0.00 67 1015.5
20260505090801 0 273 9.7 16.1 0.00 0.00 0.00 67 1015.5
20260505085746 0 278 9.7 16.1 0.00 0.00 0.00 65 1015.4
20260505084808 0 277 8.0 11.3 0.00 0.00 0.00 64 1015.2
20260505083745 0 270 8.0 11.3 0.00 0.00 0.00 64 1015.3
20260505082747 0 266 8.0 9.7 0.00 0.00 0.00 65 1015.2
20260505081746 0 266 8.0 11.3 0.00 0.00 0.00 65 1015.2
20260505080753 0 289 8.0 9.7 0.00 0.00 0.00 67 1015.1
20260505075754 -1 305 4.8 6.4 0.00 0.00 0.00 67 1015.1
20260505074814 0 305 4.8 8.0 0.00 0.00 0.00 65 1014.9
20260505073752 0 304 3.2 4.8 0.00 0.00 0.00 63 1014.9
20260505072812 1 304 0.0 3.2 0.00 0.00 0.00 62 1014.8
20260505071759 1 304 0.0 0.0 0.00 0.00 0.00 61 1014.8
20260505070739 1 304 0.0 3.2 0.00 0.00 0.00 61 1014.9
20260505065742 1 304 0.0 3.2 0.00 0.00 0.00 60 1014.8
20260505064746 2 304 0.0 4.8 0.00 0.00 0.00 60 1014.8
20260505063745 2 304 3.2 9.7 0.00 0.00 0.00 59 1014.8